Location: Étang Rond
(42.7927°N, 1.0661°E)
Time: 01:07:37
(UTC+00:00)

Cosmos 1980 - Pass Details

Date: 08 November 2025
Orbit: 836 x 847 km, 71.0° (Epoch: 07 December)

Event Time Altitude Azimuth Distance (km) Brightness Sun altitude
Rises 04:57:09 0° 197° (SSW) 3,374 6.7 -18.9°
Reaches altitude 10° 04:59:34 10° 196° (SSW) 2,445 6.0 -18.4°
Maximum altitude 05:05:10 75° 112° (ESE) 873 3.9 -17.4°
Drops below altitude 10° 05:10:49 10° 28° (NNE) 2,469 6.4 -16.4°
Sets 05:13:16 0° 27° (NNE) 3,409 7.1 -16.0°
